Voltar ao catálogo

CORVUS BC2

AtivoCiênciaSSO
NORAD 42846·PAYLOAD·🇺🇸 United States

Lançado Jul 14, 2017 de Baikonur Cosmodrome

Loading…

Próximas Passagens (próximas 24 horas)

TLE

AtualizadoSource: Space-Track

Época: Sep 14, 2026, 06:19 UTC

1 42846U 17042X   26257.26322477  .00003310  00000-0  22617-3 0  9991
2 42846  97.4174  55.2390 0013250 161.5997 198.5713 15.06757962500479

Acompanhe CORVUS BC2 em tempo real com AllMySat

Download on the App Store